Regional Weather Roundup
Issued by NWS

Home | Current Version | Previous Version | Text Only | Print | Product List | Glossary Off
Versions: 1 2 3 4 5 6 7 8 9 10 11 12 13 14 15 16 17 18 19 20 21 22 23 24 25 26 27 28 29 30 31 32 33 34 35 36 37 38 39 40 41 42 43 44 45 46 47 48 49 50

106
ASUS43 KOAX 030010
RWRNE

WEATHER ROUNDUP FOR NEBRASKA
NATIONAL WEATHER SERVICE OMAHA NE
700 PM CDT MON MAY 02 2016

NOTES: SATELLITE DATA IS BEING USED TO AUGMENT CLOUD COVER ABOVE
       12000 FEET.
       "FAIR" INDICATES FEW OR NO CLOUDS BELOW 12,000 FEET WITH NO
       SIGNIFICANT WEATHER AND/OR OBSTRUCTIONS TO VISIBILITY.

  * THESE STATIONS DO NOT REPORT WEATHER SUCH AS RAIN...SNOW OR FOG.

NEZ001>004-019>022-054>056-030100-
NEBRASKA PANHANDLE

CITY           SKY/WX    TMP DP  RH WIND       PRES   REMARKS
SCOTTSBLUFF    CLOUDY    64  30  27 N18G25    30.01S
6HR MIN TEMP:  57; 6HR MAX TEMP:  66;

ALLIANCE       CLOUDY    58  35  42 NE12      30.01S
6HR MIN TEMP:  56; 6HR MAX TEMP:  63;

CHADRON        PTSUNNY   62  34  35 E7        30.01S
6HR MIN TEMP:  59; 6HR MAX TEMP:  66;

KIMBALL        SUNNY     58  27  30 W16G24    30.07F
SIDNEY         CLOUDY    57  28  33 W10       30.05F
6HR MIN TEMP:  52; 6HR MAX TEMP:  60;

$$

NEZ057>060-069>072-079>082-030100-
SOUTHWEST NEBRASKA

CITY           SKY/WX    TMP DP  RH WIND       PRES   REMARKS
NORTH PLATTE   CLOUDY    60  30  32 NE6       30.04S
6HR MIN TEMP:  57; 6HR MAX TEMP:  63;

IMPERIAL       SUNNY     60  29  30 NW3       30.06F
6HR MIN TEMP:  56; 6HR MAX TEMP:  61;

LEXINGTON      CLOUDY    58  44  60 E6        30.04F
MCCOOK         MOSUNNY   61  37  41 NW9       30.04F
6HR MIN TEMP:  59; 6HR MAX TEMP:  64;

OGALLALA       CLOUDY    56  32  39 CALM      30.04F
$$

NEZ005>010-023>029-035>040-094-030100-
NORTH CENTRAL NEBRASKA

CITY           SKY/WX    TMP DP  RH WIND       PRES   REMARKS
VALENTINE      PTSUNNY   57  40  52 NE15      30.00F
6HR MIN TEMP:  57; 6HR MAX TEMP:  64;

AINSWORTH      CLOUDY    58  37  46 S7        30.01F
BROKEN BOW     PTSUNNY   59  37  44 SE3       30.03F
6HR MIN TEMP:  56; 6HR MAX TEMP:  60;

O`NEILL        CLOUDY    61  33  34 CALM      30.03S
ORD            MOSUNNY   59  36  42 S6        30.02F
6HR MIN TEMP:  57; 6HR MAX TEMP:  60;

THEDFORD       CLOUDY    58  36  44 N5        30.04S
$$

NEZ041-046>049-061>064-073>077-083>087-030100-
SOUTH CENTRAL NEBRASKA

CITY           SKY/WX    TMP DP  RH WIND       PRES   REMARKS
GRAND ISLAND   MOSUNNY   59  37  44 SW5       30.06F
6HR MIN TEMP:  57; 6HR MAX TEMP:  61;

AURORA         MOSUNNY   59  37  44 NW3       30.06F
HASTINGS       CLOUDY    59  36  42 CALM      30.06F
6HR MIN TEMP:  56; 6HR MAX TEMP:  61;

HEBRON         CLOUDY    60  37  42 CALM      30.06S
HOLDREGE       MOSUNNY   58  38  47 E3        30.05S
KEARNEY *      CLOUDY    59  36  41 S5        30.06F
YORK           PTSUNNY   59  37  44 CALM      30.06S
$$

NEZ011>018-030>034-042>045-030100-
NORTHEAST NEBRASKA

CITY           SKY/WX    TMP DP  RH WIND       PRES   REMARKS
NORFOLK        MOSUNNY   60  36  40 CALM      30.03F
6HR MIN TEMP:  58; 6HR MAX TEMP:  63;

ALBION         CLOUDY    59  38  46 SW6       30.03F
BLAIR          SUNNY     63  38  40 W5        30.04F
COLUMBUS *     MOSUNNY   61  36  39 SW6       30.06S
FREMONT        SUNNY     60  38  44 SW5       30.05S
TEKAMAH        SUNNY     62  36  37 S3        30.04S
6HR MIN TEMP:  60; 6HR MAX TEMP:  64;

WAYNE          MOSUNNY   59  41  51 W6        30.04S
$$

NEZ050>053-065>068-078-088>093-030100-
SOUTHEAST NEBRASKA

CITY           SKY/WX    TMP DP  RH WIND       PRES   REMARKS
LINCOLN        CLOUDY    63  36  36 VRB3      30.06F
6HR MIN TEMP:  60; 6HR MAX TEMP:  67;

OMAHA EPPLEY   PTSUNNY   61  40  45 N3        30.04F
6HR MIN TEMP:  60; 6HR MAX TEMP:  66;

BEATRICE       MOSUNNY   60  38  44 E3        30.05S
FALLS CITY     SUNNY     59  43  55 CALM      30.05S
6HR MIN TEMP:  57; 6HR MAX TEMP:  64;

NEBRASKA CITY  MOSUNNY   61  34  36 CALM      30.05F
PLATTSMOUTH    MOSUNNY   61  37  40 CALM      30.05S
$$

NEZ044-045-051>053-067-030100-
OMAHA AREA

CITY           SKY/WX    TMP DP  RH WIND       PRES   REMARKS
OMAHA EPPLEY   PTSUNNY   61  40  45 N3        30.04F
6HR MIN TEMP:  60; 6HR MAX TEMP:  66;

BLAIR          SUNNY     63  38  40 W5        30.04F
FREMONT        SUNNY     60  38  44 SW5       30.05S
MILLARD        CLOUDY    63  38  39 SE3       30.04F
OFFUTT AFB     SUNNY     62  40  43 NW5       30.04S
PLATTSMOUTH    MOSUNNY   61  37  40 CALM      30.05S
WAHOO          FAIR      61  36  39 CALM      30.05S
$$




USA.gov is the U.S. government's official web portal to all federal, state and local government web resources and services.